User: anonymous   Login
Location: Cabo di Oristano
(39.8500°N, 8.4333°E)
Time: 05:30:30
(UTC+00:00)
Language:

USA 229 DEB - Orbit

View from above orbital plane
View from above orbital plane
View from above satellite
View from above satellite

Ground track
Ground track

The orbit data is extracted from the following two-line orbital elements,

1 37391U 11014B   23157.05251794 0.00000000  00000-0  00000-0 0    04
2 37391  63.4340 225.8086 0260582 357.2187   2.7813 13.40883368    07
Epoch (UTC): 06 June 2023 01:15:37
Eccentricity: 0.0260582
inclination: 63.4340°
perigee height: 911 km
apogee height: 1301 km
right ascension of ascending node: 225.8086°
argument of perigee: 357.2187°
revolutions per day: 13.40883368
mean anomaly at epoch: 2.7813°
orbit number at epoch: 0

The dashed part of the orbit path shows where the satellite is in the earth's shadow,  

DLR